Location: Coffee Creek Observatory
(38.8077°N, 94.7179°W)
Time: 10:13:05
(UTC-06:00)

Amateur Radio Satellites - All Passes

Search period start: 04 December 2016 09:43
Search period end: 05 December 2016 09:43
Location: Coffee Creek Observatory, 38.8077°N, 94.7179°W

Satellite Date Start Highest point End Downlink Frequencies (MHz)
Time Altitude Azimuth
AAUSAT CUBESAT 2 04 Dec 09:44:47 09:47:57 22° 291° (WNW) 09:51:07 437.432
UWE-3 04 Dec 09:45:51 09:49:39 30° 290° (WNW) 09:53:21 435.000/436.395/437.385
UNISAT 6 04 Dec 09:52:45 09:57:27 77° 258° (WSW) 10:02:09 437.425
DANDE 04 Dec 09:52:53 09:56:48 23° 96° (E) 10:00:00 436.750
PRISM 04 Dec 10:02:07 10:03:18 11° 269° (W) 10:04:31 437.425
POPSAT HIP 1 04 Dec 10:03:12 10:05:29 14° 65° (ENE) 10:07:46 437.405
RS-15 04 Dec 10:23:23 10:33:52 34° 324° (NW) 10:44:44 29.354- 29.394
TIGRISAT 04 Dec 10:23:51 10:28:12 38° 262° (W) 10:32:35 435.000
ANTELSAT 04 Dec 10:24:52 10:29:09 35° 263° (W) 10:33:27 437.575/2403.000
ZACube-1 04 Dec 10:32:39 10:35:14 16° 294° (WNW) 10:37:48 437.345
Cosmos 2499 04 Dec 10:33:50 10:39:22 18° 63° (ENE) 10:44:41 435.465 / 435.565
JAS-2 04 Dec 10:38:05 10:44:40 63° 73° (ENE) 10:50:30 435.910
HUMSAT D 04 Dec 10:41:28 10:45:32 71° 285° (WNW) 10:49:35 437.325/437.525
FUNcube-1 04 Dec 10:41:56 10:44:06 14° 295° (WNW) 10:46:14 145.935
BUGSAT 1 04 Dec 10:52:00 10:54:40 16° 66° (ENE) 10:57:20 437.445
NANOSAT C BR1 04 Dec 10:57:09 11:01:18 53° 74° (ENE) 11:05:28 145.865
QB50P2 04 Dec 11:00:53 11:05:08 70° 75° (ENE) 11:09:25 145.880/145.840
DELFI C3 04 Dec 11:01:28 11:04:25 20° 291° (WNW) 11:07:23 145.870
POLYITAN 1 04 Dec 11:01:29 11:05:44 66° 75° (ENE) 11:10:00 437.675
AO-85 04 Dec 11:11:06 11:14:49 37° 53° (NE) 11:18:26 145.980
QB50P1 04 Dec 11:15:10 11:19:26 86° 253° (WSW) 11:23:45 145.935-145.965
DUCHIFAT 1 04 Dec 11:20:18 11:24:34 88° 266° (W) 11:28:51 145.980
ESTCUBE 1 04 Dec 11:21:59 11:26:14 40° 98° (E) 11:30:29 437.505/2401.250
50 SAT 04 Dec 11:26:39 11:27:53 11° 92° (E) 11:29:07 437.505
GONETS M04 04 Dec 11:27:49 11:35:49 38° 73° (ENE) 11:43:46
SPROUT 04 Dec 11:28:30 11:29:49 11° 91° (E) 11:31:08 437.525
DANDE 04 Dec 11:35:18 11:39:23 25° 281° (W) 11:42:41 436.750
POPSAT HIP 1 04 Dec 11:36:40 11:40:49 49° 260° (W) 11:44:59 437.405
AISAT 04 Dec 11:37:29 11:41:12 25° 96° (E) 11:44:52 437.250
PCSat 04 Dec 11:41:55 11:47:10 53° 113° (ESE) 11:52:27 145.827
Oscar 19 04 Dec 11:47:09 11:50:35 18° 64° (ENE) 11:54:02 437.125/150
CUBEBUG 1 04 Dec 12:08:20 12:12:48 81° 103° (ESE) 12:17:14 437.445
VELOX 1 04 Dec 12:13:59 12:18:25 60° 101° (E) 12:22:50 145.980
Cosmos 2499 04 Dec 12:25:05 12:33:47 89° 269° (W) 12:41:49 435.465 / 435.565
JAS-2 04 Dec 12:25:25 12:29:57 19° 266° (W) 12:34:11 435.910
BUGSAT 1 04 Dec 12:25:42 12:29:40 40° 261° (W) 12:33:42 437.445
DX 1 04 Dec 12:33:57 12:38:16 52° 101° (E) 12:42:32 434.975-435.025
NANOSAT C BR1 04 Dec 12:35:43 12:37:19 12° 269° (W) 12:38:56 145.865
RS-15 04 Dec 12:43:51 12:51:56 19° 359° (N) 13:00:04 29.354- 29.394
UKube-1 04 Dec 12:45:00 12:49:14 51° 100° (E) 12:53:27 .
AO-85 04 Dec 12:52:30 12:54:51 16° 250° (WSW) 12:57:12 145.980
TISAT 1 04 Dec 12:56:02 12:58:53 17° 94° (E) 13:01:42 437.305
50 SAT 04 Dec 12:58:02 13:01:20 37° 287° (WNW) 13:04:38 437.505
ESTCUBE 1 04 Dec 12:59:37 13:02:44 19° 294° (WNW) 13:05:50 437.505/2401.250
SPROUT 04 Dec 13:01:51 13:06:05 56° 286° (WNW) 13:10:16 437.525
Gurwin Techsat 1B 04 Dec 13:05:00 13:10:07 51° 72° (ENE) 13:15:16 435.225
AISAT 04 Dec 13:13:46 13:17:36 28° 291° (WNW) 13:21:24 437.250
Oscar 19 04 Dec 13:24:30 13:29:27 52° 260° (W) 13:34:29 437.125/150
GONETS M04 04 Dec 13:24:35 13:32:38 44° 272° (W) 13:40:44
PCSat 04 Dec 13:26:39 13:30:52 23° 311° (NW) 13:35:07 145.827
BEESAT 3 04 Dec 13:29:49 13:32:23 16° 46° (NE) 13:34:55 437.485
JUGNU 04 Dec 13:37:21 13:39:12 11° 178° (S) 13:41:02 437.505
ITAMSAT 1 04 Dec 13:49:11 13:53:42 31° 68° (ENE) 13:58:14 435.822/435.867
VELOX 1 04 Dec 13:52:22 13:54:20 13° 297° (WNW) 13:56:18 145.980
AO-7 04 Dec 13:53:06 14:00:22 36° 60° (ENE) 14:07:40 29.400- 29.500
BEESAT 2 04 Dec 13:55:03 13:57:19 14° 45° (NE) 13:59:34 435.950
ITUPSAT 1 04 Dec 14:00:43 14:03:53 18° 93° (E) 14:07:02 437.325
DX 1 04 Dec 14:11:40 14:13:59 14° 296° (WNW) 14:16:17 434.975-435.025
AUBIESAT-1 04 Dec 14:19:51 14:23:37 25° 99° (E) 14:27:15 437.475
Cosmos 2499 04 Dec 14:20:52 14:25:28 16° 284° (WNW) 14:29:55 435.465 / 435.565
UKube-1 04 Dec 14:22:32 14:24:49 14° 296° (WNW) 14:27:06 .
M-CUBED/EXP-1 PRIME 04 Dec 14:30:01 14:34:26 40° 103° (ESE) 14:38:40 437.505
TISAT 1 04 Dec 14:30:44 14:34:36 35° 289° (WNW) 14:38:26 437.305
Gurwin Techsat 1B 04 Dec 14:46:41 14:50:20 19° 267° (W) 14:54:00 435.225
MOZHAYETS 4 04 Dec 14:57:03 14:59:55 16° 93° (E) 15:02:44
RS-15 04 Dec 14:59:33 15:10:13 32° 34° (NE) 15:20:40 29.354- 29.394
BEESAT 3 04 Dec 15:06:25 15:10:16 48° 244° (WSW) 15:14:05 437.485
SWISSCUBE 04 Dec 15:06:30 15:11:16 81° 286° (WNW) 15:16:00 437.505
BEESAT 04 Dec 15:10:45 15:15:31 82° 285° (WNW) 15:20:16 436.000
SRMSAT 04 Dec 15:13:51 15:14:31 10° 173° (S) 15:15:10 437.500
ITAMSAT 1 04 Dec 15:28:30 15:33:04 31° 263° (W) 15:37:41 435.822/435.867
BEESAT 2 04 Dec 15:31:30 15:35:28 59° 243° (WSW) 15:39:25 435.950
ITUPSAT 1 04 Dec 15:37:23 15:41:54 44° 289° (WNW) 15:46:24 437.325
KKS-1 04 Dec 15:40:13 15:43:26 19° 94° (E) 15:46:37 437.445
AO-7 04 Dec 15:44:49 15:52:49 52° 258° (WSW) 16:00:54 29.400- 29.500
ISS 04 Dec 15:50:11 15:52:08 15° 129° (SE) 15:54:06 145.825
HORYU 2 04 Dec 15:51:52 15:54:58 19° 66° (ENE) 15:58:05 437.375
STARS 04 Dec 15:52:50 15:54:11 11° 91° (E) 15:55:32 437.465
AUBIESAT-1 04 Dec 15:53:54 15:57:59 32° 295° (WNW) 16:01:57 437.475
GOMX 1 04 Dec 16:01:41 16:03:11 11° 60° (ENE) 16:04:42 467.674
M-CUBED/EXP-1 PRIME 04 Dec 16:05:01 16:08:34 22° 299° (WNW) 16:12:03 437.505
AIST 2 04 Dec 16:07:16 16:08:17 11° 41° (NE) 16:09:18 435.215
O/OREOS (USA 219) 04 Dec 16:08:42 16:13:06 49° 107° (ESE) 16:17:30 437.305
BRITE-PL 04 Dec 16:13:58 16:17:49 35° 70° (ENE) 16:21:55 437.365/2234.400
CUBESAT XI-V 04 Dec 16:31:07 16:34:53 24° 95° (E) 16:38:38 437.345
MOZHAYETS 4 04 Dec 16:32:56 16:37:16 44° 288° (WNW) 16:41:34
NOAA 18 04 Dec 16:45:42 16:48:53 16° 60° (ENE) 16:52:04 137.9125
CUTE-I 04 Dec 16:49:58 16:54:14 25° 66° (ENE) 16:58:31 437.470
SRMSAT 04 Dec 17:01:09 17:02:45 11° 184° (S) 17:04:20 437.500
RS-15 04 Dec 17:12:10 17:24:38 89° 63° (ENE) 17:36:36 29.354- 29.394
Cubesat XI-IV 04 Dec 17:14:28 17:19:28 40° 70° (ENE) 17:24:28 437.490
KKS-1 04 Dec 17:15:58 17:20:05 36° 290° (WNW) 17:24:11 437.445
NOAA 15 04 Dec 17:17:35 17:22:36 48° 71° (ENE) 17:27:38 137.62
ISS 04 Dec 17:25:07 17:28:19 52° 325° (NW) 17:31:34 145.825
STARS 04 Dec 17:26:31 17:30:54 60° 286° (WNW) 17:35:14 437.465
HORYU 2 04 Dec 17:26:59 17:31:12 40° 261° (W) 17:35:26 437.375
Cosmos 2491 04 Dec 17:27:48 17:35:25 32° 71° (ENE) 17:42:58 435.465 / 435.565
GOMX 1 04 Dec 17:36:02 17:40:28 73° 258° (WSW) 17:45:18 467.674
LilacSat-2 04 Dec 17:36:08 17:39:57 65° 75° (ENE) 17:43:47 437.200
AIST 2 04 Dec 17:43:11 17:47:26 84° 59° (ENE) 17:51:39 435.215
O/OREOS (USA 219) 04 Dec 17:49:50 17:52:46 17° 303° (WNW) 17:55:43 437.305
CINEMA 3 04 Dec 17:50:11 17:53:27 18° 65° (ENE) 17:56:44 145.822/145.860
BRITE-PL 04 Dec 17:53:35 17:56:29 18° 268° (W) 17:59:31 437.365/2234.400
DOVE 4 04 Dec 17:54:48 17:59:29 73° 75° (ENE) 18:04:30 437.250
YUBILEINY 04 Dec 17:56:43 18:02:26 20° 79° (E) 18:08:09 435.215
HO-68 04 Dec 18:00:09 18:05:54 27° 61° (ENE) 18:11:40 435.675
CUBESAT XI-V 04 Dec 18:08:08 18:12:15 32° 290° (WNW) 18:16:22 437.345
NOAA 18 04 Dec 18:23:22 18:28:53 72° 257° (WSW) 18:34:27 137.9125
CUTE 1.7 + AOD 2 04 Dec 18:26:37 18:29:47 21° 68° (ENE) 18:32:57 437.475
CUTE-I 04 Dec 18:28:59 18:34:02 41° 262° (W) 18:39:05 437.470
CANX-2 04 Dec 18:43:25 18:47:18 37° 72° (ENE) 18:51:12 2200.000
Cubesat XI-IV 04 Dec 18:55:19 18:59:37 24° 265° (W) 19:03:57 437.490
AAUSAT CUBESAT 2 04 Dec 18:58:51 19:01:25 16° 67° (ENE) 19:04:00 437.432
NOAA 15 04 Dec 18:58:55 19:02:36 19° 267° (W) 19:06:18 137.62
ISS 04 Dec 19:03:47 19:05:26 13° 343° (NNW) 19:07:05 145.825
UWE-3 04 Dec 19:05:48 19:08:47 17° 66° (ENE) 19:11:45 435.000/436.395/437.385
SEEDS 04 Dec 19:12:12 19:16:11 46° 74° (ENE) 19:20:11 437.485
Cosmos 2491 04 Dec 19:24:12 19:32:32 52° 271° (W) 19:40:51 435.465 / 435.565
CINEMA 3 04 Dec 19:25:20 19:30:05 52° 261° (W) 19:34:59 145.822/145.860
COMPASS 1 04 Dec 19:25:51 19:29:45 43° 73° (ENE) 19:33:40 437.405
RS-15 04 Dec 19:26:47 19:35:24 23° 261° (W) 19:43:53 29.354- 29.394
STRAND 1 04 Dec 19:27:28 19:32:29 56° 101° (E) 19:37:28 437.568
AIST 1 04 Dec 19:29:16 19:32:51 26° 89° (E) 19:36:29
DOVE 4 04 Dec 19:36:36 19:37:47 11° 273° (W) 19:38:59 437.250
SO-50 04 Dec 19:40:56 19:44:43 23° 111° (ESE) 19:48:27 436.795
HO-68 04 Dec 19:46:08 19:53:08 58° 258° (WSW) 20:00:13 435.675
YUBILEINY 04 Dec 19:49:25 19:58:07 79° 278° (W) 20:06:55 435.215
ZACube-1 04 Dec 19:49:31 19:53:27 29° 70° (ENE) 19:57:21 437.345
CUBEBUG 2 04 Dec 19:54:07 19:58:53 84° 79° (E) 20:03:39 437.445
FUNcube-1 04 Dec 19:58:01 20:02:04 33° 71° (ENE) 20:06:06 145.935
CUSAT 1 04 Dec 19:59:47 20:02:38 21° 78° (ENE) 20:06:04 437.405
CUTE 1.7 + AOD 2 04 Dec 20:01:43 20:05:25 30° 263° (W) 20:09:09 437.475
Cosmos 2504 04 Dec 20:01:46 20:09:51 65° 92° (E) 20:18:30 435.465 / 435.565
DELFI C3 04 Dec 20:12:02 20:14:05 14° 66° (ENE) 20:16:07 145.870
CANX-2 04 Dec 20:20:36 20:23:17 16° 267° (W) 20:25:58 2200.000
Oscar 11 04 Dec 20:30:28 20:34:46 72° 77° (ENE) 20:39:05 145.826/435.025
PCSat 04 Dec 20:31:09 20:36:04 33° 54° (NE) 20:40:57 145.827
AAUSAT CUBESAT 2 04 Dec 20:32:46 20:36:35 37° 262° (W) 20:40:25 437.432
UWE-3 04 Dec 20:40:20 20:44:51 47° 261° (W) 20:49:20 435.000/436.395/437.385
SEEDS 04 Dec 20:50:08 20:52:05 13° 268° (W) 20:54:04 437.485
COMPASS 1 04 Dec 21:03:24 21:05:30 14° 268° (W) 21:07:35 437.405
AIST 1 04 Dec 21:07:00 21:10:23 22° 286° (WNW) 21:13:49
STRAND 1 04 Dec 21:07:56 21:11:11 17° 297° (WNW) 21:14:25 437.568
SO-50 04 Dec 21:20:29 21:24:57 39° 307° (NW) 21:29:23 436.795
ZACube-1 04 Dec 21:25:54 21:29:40 25° 265° (W) 21:33:24 437.345
HUMSAT D 04 Dec 21:30:48 21:35:00 64° 75° (ENE) 21:39:09 437.325/437.525
FUNcube-1 04 Dec 21:34:48 21:38:19 22° 266° (W) 21:41:49 145.935
PRISM 04 Dec 21:41:16 21:45:26 78° 286° (WNW) 21:49:36 437.425
CUSAT 1 04 Dec 21:41:24 21:44:25 23° 264° (W) 21:48:04 437.405
DELFI C3 04 Dec 21:44:49 21:48:30 40° 261° (W) 21:52:15 145.870
UNISAT 6 04 Dec 21:46:36 21:50:08 23° 95° (E) 21:53:36 437.425
YUBILEINY 04 Dec 21:51:55 21:56:26 15° 299° (WNW) 22:01:00 435.215
Cosmos 2504 04 Dec 21:57:08 22:03:54 27° 292° (WNW) 22:11:01 435.465 / 435.565
DANDE 04 Dec 22:12:36 22:15:11 32° 262° (W) 22:18:14 436.750
PCSat 04 Dec 22:14:36 22:19:24 33° 251° (WSW) 22:24:11 145.827
TIGRISAT 04 Dec 22:16:32 22:20:49 48° 99° (E) 22:24:58 435.000
ANTELSAT 04 Dec 22:17:34 22:21:53 52° 99° (E) 22:26:05 437.575/2403.000
ISS 04 Dec 22:18:14 22:20:42 19° 24° (NNE) 22:23:11 145.825
ESTCUBE 1 04 Dec 22:20:19 22:24:15 31° 70° (ENE) 22:28:12 437.505/2401.250
AISAT 04 Dec 22:33:59 22:37:10 20° 66° (ENE) 22:40:21 437.250
QB50P2 04 Dec 22:49:04 22:50:48 12° 91° (E) 22:52:32 145.880/145.840
POLYITAN 1 04 Dec 22:49:54 22:51:21 12° 91° (E) 22:52:48 437.675
QB50P1 04 Dec 23:02:19 23:05:02 17° 93° (E) 23:07:44 145.935-145.965
CUBEBUG 1 04 Dec 23:02:41 23:06:56 55° 74° (ENE) 23:11:13 437.445
DUCHIFAT 1 04 Dec 23:06:54 23:09:30 16° 93° (E) 23:12:03 145.980
VELOX 1 04 Dec 23:09:48 23:13:59 44° 72° (ENE) 23:18:12 145.980
Cosmos 2499 04 Dec 23:11:03 23:14:59 14° 75° (ENE) 23:19:01 435.465 / 435.565
POPSAT HIP 1 04 Dec 23:22:55 23:26:35 28° 96° (E) 23:30:12 437.405
UNISAT 6 04 Dec 23:23:03 23:26:49 28° 291° (WNW) 23:30:30 437.425
DX 1 04 Dec 23:28:06 23:32:07 38° 71° (ENE) 23:36:09 434.975-435.025
50 SAT 04 Dec 23:31:31 23:34:59 64° 75° (ENE) 23:38:28 437.505
JAS-2 04 Dec 23:33:19 23:38:26 56° 101° (E) 23:43:45 435.910
UKube-1 04 Dec 23:38:09 23:42:05 36° 71° (ENE) 23:46:02 .
TISAT 1 04 Dec 23:47:41 23:49:21 12° 64° (ENE) 23:51:01 437.305
SPROUT 04 Dec 23:53:24 23:57:42 89° 93° (E) 00:02:03 437.525
ISS 04 Dec 23:54:11 23:57:29 65° 222° (SW) 00:00:45 145.825
TIGRISAT 04 Dec 23:54:36 23:57:04 15° 295° (WNW) 23:59:28 435.000
ANTELSAT 04 Dec 23:55:54 23:58:05 14° 296° (WNW) 00:00:16 437.575/2403.000
ESTCUBE 1 04 Dec 23:57:35 00:01:04 22° 265° (W) 00:04:33 437.505/2401.250
BUGSAT 1 05 Dec 00:08:49 00:12:31 30° 97° (E) 00:16:09 437.445
AISAT 05 Dec 00:09:17 00:13:21 36° 262° (W) 00:17:27 437.250
NANOSAT C BR1 05 Dec 00:18:13 00:22:25 67° 285° (WNW) 00:26:35 145.865
QB50P2 05 Dec 00:22:45 00:26:53 51° 286° (WNW) 00:30:58 145.880/145.840
POLYITAN 1 05 Dec 00:23:19 00:27:28 53° 286° (WNW) 00:31:33 437.675
GONETS M04 05 Dec 00:27:08 00:35:17 46° 88° (E) 00:43:23
QB50P1 05 Dec 00:37:00 00:40:56 37° 288° (WNW) 00:44:50 145.935-145.965
SWISSCUBE 05 Dec 00:37:59 00:39:04 11° 61° (ENE) 00:40:10 437.505
DUCHIFAT 1 05 Dec 00:41:23 00:45:19 39° 288° (WNW) 00:49:13 145.980
CUBEBUG 1 05 Dec 00:41:53 00:43:33 12° 269° (W) 00:45:13 437.445
BEESAT 05 Dec 00:42:17 00:43:16 11° 61° (ENE) 00:44:15 436.000
VELOX 1 05 Dec 00:48:04 00:50:39 15° 268° (W) 00:53:15 145.980
Cosmos 2499 05 Dec 00:58:04 01:06:31 79° 94° (E) 01:15:24 435.465 / 435.565
POPSAT HIP 1 05 Dec 00:58:53 01:02:12 23° 292° (WNW) 01:05:31 437.405
PHONESAT 2.4 05 Dec 01:00:01 01:02:27 33° 156° (SSE) 01:04:54 2401.200-2431.200
AUBIESAT-1 05 Dec 01:04:12 01:07:30 24° 62° (ENE) 01:10:58 437.475
DX 1 05 Dec 01:05:31 01:08:25 17° 266° (W) 01:11:21 434.975-435.025
ITUPSAT 1 05 Dec 01:06:24 01:09:44 19° 65° (ENE) 01:13:03 437.325
M-CUBED/EXP-1 PRIME 05 Dec 01:14:43 01:18:26 37° 66° (ENE) 01:22:27 437.505
UKube-1 05 Dec 01:15:15 01:18:13 18° 266° (W) 01:21:12 .
JAS-2 05 Dec 01:19:56 01:23:08 17° 297° (WNW) 01:26:21 435.910
TISAT 1 05 Dec 01:20:17 01:24:27 58° 259° (W) 01:28:40 437.305
Gurwin Techsat 1B 05 Dec 01:23:10 01:27:17 22° 94° (E) 01:31:21 435.225
AO-85 05 Dec 01:24:24 01:28:02 20° 111° (ESE) 01:31:31 145.980
Oscar 19 05 Dec 01:37:03 01:42:12 61° 101° (E) 01:47:21 437.125/150
BUGSAT 1 05 Dec 01:44:32 01:47:41 21° 292° (WNW) 01:50:48 437.445
MOZHAYETS 4 05 Dec 01:58:22 02:00:51 15° 64° (ENE) 02:03:19
ITAMSAT 1 05 Dec 02:05:40 02:06:59 11° 90° (E) 02:08:17 435.822/435.867
SWISSCUBE 05 Dec 02:11:22 02:16:09 82° 257° (WSW) 02:20:56 437.505
BEESAT 05 Dec 02:15:33 02:20:20 83° 256° (WSW) 02:25:08 436.000
O/OREOS (USA 219) 05 Dec 02:19:51 02:24:21 76° 68° (ENE) 02:28:47 437.305
GONETS M04 05 Dec 02:24:17 02:32:10 37° 287° (WNW) 02:40:04
PHONESAT 2.4 05 Dec 02:34:59 02:37:37 66° 351° (N) 02:40:16 2401.200-2431.200
KKS-1 05 Dec 02:37:36 02:40:20 16° 65° (ENE) 02:43:06 437.445
AUBIESAT-1 05 Dec 02:38:11 02:41:43 29° 260° (W) 02:45:30 437.475
ITUPSAT 1 05 Dec 02:42:38 02:47:12 44° 261° (W) 02:51:47 437.325
M-CUBED/EXP-1 PRIME 05 Dec 02:50:20 02:53:04 18° 263° (W) 02:55:57 437.505
Cosmos 2499 05 Dec 02:54:18 03:00:38 22° 295° (WNW) 03:07:10 435.465 / 435.565
Gurwin Techsat 1B 05 Dec 03:02:22 03:07:22 43° 290° (WNW) 03:12:21 435.225
AO-85 05 Dec 03:03:29 03:08:14 46° 305° (NW) 03:12:39 145.980
Oscar 19 05 Dec 03:17:50 03:21:00 17° 297° (WNW) 03:24:09 437.125/150
MOZHAYETS 4 05 Dec 03:33:02 03:37:32 55° 260° (W) 03:42:03
CUBESAT XI-V 05 Dec 03:33:36 03:36:58 21° 67° (ENE) 03:40:20 437.345
ITAMSAT 1 05 Dec 03:41:48 03:47:00 79° 285° (WNW) 03:52:10 435.822/435.867
AO-7 05 Dec 03:47:22 03:55:40 60° 104° (ESE) 04:03:54 29.400- 29.500
PHONESAT 2.4 05 Dec 04:10:22 04:13:00 65° 8° (N) 04:15:39 2401.200-2431.200
KKS-1 05 Dec 04:12:13 04:16:30 46° 260° (W) 04:20:50 437.445
SO-50 05 Dec 04:13:28 04:16:26 17° 44° (NE) 04:19:21 436.795
BRITE-PL 05 Dec 04:19:43 04:23:12 17° 92° (E) 04:26:44 437.365/2234.400
STARS 05 Dec 04:21:19 04:25:44 82° 258° (WSW) 04:30:12 437.465
BEESAT 3 05 Dec 04:55:14 04:58:46 34° 115° (ESE) 05:02:22 437.485
CUBESAT XI-V 05 Dec 05:09:51 05:14:04 37° 262° (W) 05:18:20 437.345
HORYU 2 05 Dec 05:18:55 05:23:06 40° 99° (E) 05:27:15 437.375
BEESAT 2 05 Dec 05:21:57 05:25:25 30° 114° (ESE) 05:28:55 435.950
RS-15 05 Dec 05:29:29 05:33:57 13° 94° (E) 05:38:28 29.354- 29.394
Cubesat XI-IV 05 Dec 05:33:59 05:37:28 17° 92° (E) 05:40:56 437.490
NOAA 15 05 Dec 05:34:45 05:38:34 20° 94° (E) 05:42:22 137.62
GOMX 1 05 Dec 05:38:33 05:43:43 41° 97° (E) 05:48:51 467.674
AO-7 05 Dec 05:40:54 05:47:54 31° 302° (WNW) 05:54:55 29.400- 29.500
PHONESAT 2.4 05 Dec 05:45:44 05:48:10 34° 204° (SSW) 05:50:37 2401.200-2431.200
SO-50 05 Dec 05:52:51 05:57:18 61° 242° (WSW) 06:01:40 436.795
DOVE 4 05 Dec 05:55:29 05:59:48 25° 93° (E) 06:04:00 437.250
BRITE-PL 05 Dec 05:56:36 06:01:56 62° 286° (WNW) 06:07:30 437.365/2234.400
Cosmos 2504 05 Dec 05:57:12 06:03:49 23° 66° (ENE) 06:10:10 435.465 / 435.565
YUBILEINY 05 Dec 06:01:17 06:09:47 50° 76° (ENE) 06:18:15 435.215
Cosmos 2491 05 Dec 06:27:22 06:35:15 39° 86° (E) 06:43:06 435.465 / 435.565
BEESAT 3 05 Dec 06:33:33 06:36:29 20° 312° (NW) 06:39:27 437.485
STRAND 1 05 Dec 06:41:53 06:46:59 70° 74° (ENE) 06:52:06 437.568
LilacSat-2 05 Dec 06:44:48 06:48:33 67° 284° (WNW) 06:52:16 437.200
NOAA 18 05 Dec 06:46:48 06:52:14 54° 101° (E) 06:57:37 137.9125
CUTE-I 05 Dec 06:46:54 06:52:16 88° 105° (ESE) 06:57:35 437.470
HORYU 2 05 Dec 06:56:20 06:59:20 18° 294° (WNW) 07:02:18 437.375
BEESAT 2 05 Dec 07:00:04 07:03:13 22° 311° (NW) 07:06:25 435.950
Cubesat XI-IV 05 Dec 07:12:38 07:17:51 55° 288° (WNW) 07:23:01 437.490
NOAA 15 05 Dec 07:13:30 07:18:33 47° 289° (WNW) 07:23:35 137.62
AIST 1 05 Dec 07:13:59 07:18:26 76° 83° (E) 07:22:49
HO-68 05 Dec 07:15:34 07:21:46 30° 96° (E) 07:27:56 435.675
GOMX 1 05 Dec 07:17:03 07:21:30 26° 293° (WNW) 07:25:58 467.674
CINEMA 3 05 Dec 07:21:38 07:26:14 43° 98° (E) 07:30:37 145.822/145.860
RS-15 05 Dec 07:32:20 07:43:50 68° 114° (ESE) 07:55:55 29.354- 29.394
DOVE 4 05 Dec 07:32:38 07:37:32 38° 289° (WNW) 07:42:17 437.250
AIST 2 05 Dec 07:40:03 07:43:17 23° 112° (ESE) 07:46:33 435.215
CUTE 1.7 + AOD 2 05 Dec 07:47:10 07:51:15 47° 99° (E) 07:55:19 437.475
CUBEBUG 2 05 Dec 07:47:36 07:50:42 19° 93° (E) 07:53:42 437.445
Cosmos 2504 05 Dec 07:49:20 07:58:08 75° 267° (W) 08:06:24 435.465 / 435.565
YUBILEINY 05 Dec 07:58:36 08:06:13 34° 275° (W) 08:13:53 435.215
CANX-2 05 Dec 08:04:52 08:09:05 88° 291° (WNW) 08:13:19 2200.000
AAUSAT CUBESAT 2 05 Dec 08:15:55 08:19:42 33° 97° (E) 08:23:28 437.432
Oscar 11 05 Dec 08:20:24 08:22:45 14° 92° (E) 08:25:05 145.826/435.025
Cosmos 2491 05 Dec 08:23:40 08:31:55 44° 285° (WNW) 08:40:11 435.465 / 435.565
STRAND 1 05 Dec 08:24:30 08:26:38 12° 270° (W) 08:28:46 437.568
NOAA 18 05 Dec 08:28:29 08:32:27 20° 297° (WNW) 08:36:22 137.9125
PRISM 05 Dec 08:29:02 08:33:00 60° 75° (ENE) 08:37:03 437.425
CUTE-I 05 Dec 08:29:37 08:31:30 12° 301° (WNW) 08:33:22 437.470
UWE-3 05 Dec 08:31:32 08:35:32 36° 97° (E) 08:39:24 435.000/436.395/437.385
SEEDS 05 Dec 08:32:29 08:36:39 74° 283° (WNW) 08:40:49 437.485
UNISAT 6 05 Dec 08:44:10 08:47:35 20° 67° (ENE) 08:51:00 437.425
COMPASS 1 05 Dec 08:44:50 08:49:00 80° 282° (WNW) 08:53:09 437.405
CINEMA 3 05 Dec 08:59:38 09:02:58 19° 295° (WNW) 09:06:12 145.822/145.860
CUSAT 1 05 Dec 09:02:42 09:05:06 18° 96° (E) 09:07:14 437.405
HO-68 05 Dec 09:02:47 09:09:39 49° 293° (WNW) 09:16:30 435.675
TIGRISAT 05 Dec 09:13:25 09:17:44 38° 71° (ENE) 09:22:02 435.000
ANTELSAT 05 Dec 09:14:33 09:18:56 41° 72° (ENE) 09:23:18 437.575/2403.000
ZACube-1 05 Dec 09:14:42 09:18:57 70° 102° (ESE) 09:23:04 437.345
AIST 2 05 Dec 09:17:55 09:21:35 31° 308° (NW) 09:25:18 435.215
HUMSAT D 05 Dec 09:18:13 09:18:54 10° 91° (E) 09:19:35 437.325/437.525
FUNcube-1 05 Dec 09:22:59 09:27:13 81° 102° (ESE) 09:31:21 145.935
DELFI C3 05 Dec 09:23:24 09:26:44 25° 96° (E) 09:30:02 145.870
CUBEBUG 2 05 Dec 09:23:25 09:27:25 34° 289° (WNW) 09:31:17 437.445
CUTE 1.7 + AOD 2 05 Dec 09:24:29 09:26:40 14° 294° (WNW) 09:28:51 437.475
